Location: Unspecified
(43.0000°N, 0.0000°E)
Time: 03:05:54
(UTC+00:00)

UNISAT 6 - Visible Passes

Search period start: 17 July 2019 00:00
Search period end: 27 July 2019 00:00
Orbit: 607 x 689 km, 97.8° (Epoch: 16 July)

Date Brightness Start Highest point End Pass type
(mag) Time Alt. Az. Time Alt. Az. Time Alt. Az.
17 Jul ? 21:19:21 10° N 21:23:51 57° WNW 21:28:24 10° SSW visible
18 Jul ? 20:09:07 10° NE 20:13:05 27° E 20:17:03 10° SSE visible
18 Jul ? 21:45:40 10° N 21:49:44 32° WNW 21:53:51 10° SW visible
19 Jul ? 20:34:43 10° NNE 20:39:13 50° E 20:43:45 10° S visible
19 Jul ? 22:12:22 10° NNW 22:15:33 19° WNW 22:18:44 10° WSW visible
20 Jul ? 21:00:37 10° NNE 21:05:17 88° W 21:09:58 10° SSW visible
20 Jul ? 22:40:10 10° NW 22:41:13 11° WNW 22:42:18 10° WNW visible
21 Jul ? 21:26:47 10° N 21:31:13 48° WNW 21:35:43 10° SW visible
22 Jul ? 20:16:20 10° NNE 20:20:32 33° E 20:24:45 10° SSE visible
22 Jul ? 21:53:11 10° N 21:57:05 27° WNW 22:01:00 10° SW visible
23 Jul ? 20:42:01 10° NNE 20:46:39 61° E 20:51:17 10° S visible
23 Jul ? 22:20:03 10° NNW 22:22:51 16° WNW 22:25:40 10° W visible
24 Jul ? 21:08:00 10° N 21:12:40 74° WNW 21:17:21 10° SSW visible
25 Jul ? 19:58:09 10° NE 20:01:47 22° E 20:05:26 10° SE visible
25 Jul ? 21:34:14 10° N 21:38:36 40° WNW 21:42:58 10° SW visible
26 Jul ? 20:23:34 10° NNE 20:27:59 39° E 20:32:23 10° SSE visible
26 Jul ? 22:00:45 10° NNW 22:04:26 23° WNW 22:08:07 10° WSW visible
